Home   Weather   Orlando   Past weeks
Flag for USA

Past Weather in Orlando, Florida, USA — Yesterday and Last 2 Weeks

Now
76 °F

Strong thunderstorms. Fog.


Feels Like: 76 °F
Forecast: 93 / 78 °F
Wind: 15 mph from East

Location: Orlando Executive Airport

Current Time: Jul 17, 2019 at 6:58:32 pm

Latest Report: Jul 17, 2019 at 6:15 pm


Visibility: 2 mi

Pressure: 30.12 "Hg

Humidity: 91%

Dew Point: 73 °F

Location of OrlandoLocation

Past Weather in Orlando — Graph

°F

Orlando Temperature Yesterday

Maximum temperature yesterday: 95 °F (at 2:53 pm)
Minimum temperature yesterday: 78 °F (at 6:53 am)
Average temperature yesterday: 86 °F

High & Low Weather Summary for the Past Weeks

 TemperatureHumidityPressure
High97 °F (Jul 3, 2:53 pm)96% (Jul 6, 7:15 pm)30.18 "Hg (Jul 6, 7:15 pm)
Low73 °F (Jul 13, 12:53 am)38% (Jul 5, 3:53 pm)29.90 "Hg (Jul 8, 4:53 pm)
Average83 °F75%30.04 "Hg
* Reported Jul 2 5:53 pm — Jul 17 5:33 pm, Orlando. Weather by CustomWeather, © 2019

Note: Actual official high and low records may vary slightly from our data, if they occured in-between our weather recording intervals... More about our weather records

Advertising

Orlando Weather History for the Previous 24 Hours

Scroll right to see more
 ConditionsComfort  
Time TempWeatherWind HumidityBarometerVisibility
5:33 pm
Wed, Jul 17
83 °FThundershowers. Mostly cloudy.10 mph77%30.08 "Hg10 mi
5:07 pm86 °FThunderstorms. Mostly cloudy.14 mph65%30.06 "Hg10 mi
4:53 pm92 °FThundershowers. Partly sunny.8 mph47%30.06 "Hg10 mi
2:53 pm93 °FScattered clouds.7 mph49%30.09 "Hg10 mi
1:53 pm93 °FPassing clouds.8 mph49%30.13 "Hg10 mi
12:53 pm89 °FBroken clouds.5 mph57%30.15 "Hg10 mi
11:53 am89 °FScattered clouds.6 mph59%30.15 "Hg10 mi
10:53 am88 °FScattered clouds.6 mph63%30.15 "Hg10 mi
9:53 am87 °FPassing clouds.8 mph69%30.14 "Hg10 mi
8:53 am84 °FSunny.5 mph77%30.14 "Hg10 mi
7:53 am81 °FSunny.3 mph85%30.13 "Hg10 mi
6:53 am78 °FSunny.3 mph90%30.12 "Hg10 mi
5:53 am80 °FClear.No wind85%30.11 "Hg10 mi
4:53 am80 °FClear.No wind85%30.10 "Hg10 mi
3:53 am80 °FClear.3 mph87%30.10 "Hg10 mi
2:53 am81 °FClear.3 mph85%30.11 "Hg10 mi
1:53 am82 °FClear.6 mph82%30.13 "Hg10 mi
12:53 am82 °FClear.5 mph79%30.14 "Hg10 mi
11:53 pm
Tue, Jul 16
82 °FClear.7 mph77%30.14 "Hg10 mi
10:53 pm82 °FClear.6 mph77%30.14 "Hg10 mi
9:53 pm84 °FClear.9 mph70%30.13 "Hg10 mi
8:53 pm86 °FPassing clouds.8 mph59%30.13 "Hg10 mi
7:53 pm88 °FSunny.10 mph54%30.11 "Hg10 mi
7:25 pm89 °FPassing clouds.12 mph55%30.09 "Hg10 mi
7:10 pm90 °FThundershowers. Scattered clouds.12 mph54%30.09 "Hg10 mi
6:53 pm90 °FPartly sunny.10 mph54%30.08 "Hg10 mi
Weather by CustomWeather, © 2019

See weather overview